Temp
-6 -4 -2 -1 -1 -1 -0 -1 -2 -2 -3 -4 -6 -5 -5 -4 -4 -4 -4 -4 -3 -3 -4 -4 -3 -3 -3 -2 -2 -2 -1 -1 -3 -2 -1 -1 -0 -0 0 1 -0 -0 -1 0
-5 -4 -3 -1 -1 -1 -1 -1 -2 -3 -4 -5 -5 -5 -4 -4 -4 -4 -4 -4 -3 -3 -3 -3 -3 -3 -3 -2 -2 -1 -1 -1 -3 -2 -2 -1 -1 -0 0 0 0 1 -1 -0
-5 -5 -4 -2 -1 -1 -0 -1 -2 -4 -4 -4 -5 -5 -4 -4 -4 -4 -3 -3 -3 -3 -3 -3 -4 -4 -3 -3 -2 -2 -1 -2 -2 -2 -1 -1 -1 -1 -1 -1 -1 -0 0 -0
-5 -5 -4 -3 -1 -1 -1 -1 -2 -1 -2 -4 -5 -4 -4 -4 -4 -4 -3 -4 -3 -4 -4 -4 -4 -4 -4 -3 -3 -2 -2 -2 -2 -2 -2 -1 -1 -1 -1 -1 -0 -0 0 -0
-5 -4 -4 -3 -2 -1 -1 -1 -1 -1 -1 -4 -4 -4 -4 -4 -4 -4 -4 -4 -3 -3 -3 -3 -2 -4 -4 -3 -3 -2 -2 -3 -2 -2 -2 -2 -1 -1 -1 -1 -1 -1 -1 -1
-5 -3 -4 -3 -2 -2 -0 -1 -1 -2 -3 -4 -5 -4 -4 -4 -3 -4 -4 -3 -3 -3 -3 -3 -4 -4 -3 -3 -3 -2 -2 -2 -3 -3 -2 -2 -2 -2 -2 -2 -2 -2 -2 -2
-4 -4 -4 -3 -2 -2 -2 -2 -2 -2 -3 -4 -4 -4 -4 -4 -4 -3 -4 -4 -4 -3 -3 -3 -4 -4 -4 -3 -3 -3 -3 -3 -3 -3 -3 -6 -3 -2 -2 -2 -2 -2 -2 -2
-4 -4 -3 -4 -2 -2 -2 -2 -3 -3 -3 -4 -5 -5 -4 -4 -4 -4 -3 -4 -3 -3 -4 -4 -4 -4 -4 -4 -4 -4 -3 -3 -3 -3 -3 -3 -3 -3 -3 -3 -3 -3 -3 -3
-6 -6 -4 -3 -3 -3 -3 -4 -4 -4 -3 -5 -5 -5 -4 -4 -4 -4 -4 -4 -4 -4 -4 -4 -4 -4 -4 -4 -4 -4 -4 -4 -4 -4 -4 -5 -3 -3 -3 -3 -3 -3 -3 -3
-5 -4 -4 -4 -3 -3 -4 -4 -4 -4 -4 -4 -5 -5 -5 -5 -4 -4 -4 -4 -4 -4 -4 -4 -4 -4 -4 -4 -4 -4 -5 -4 -4 -4 -4 -3 -3 -3 -4 -4 -3 -3 -3 -4
-5 -4 -4 -3 -2 -3 -4 -4 -5 -5 -4 -4 -5 -5 -5 -4 -4 -4 -4 -5 -5 -5 -4 -4 -4 -4 -4 -4 -4 -4 -4 -4 -4 -4 -4 -5 -4 -4 -4 -4 -4 -4 -5 -5
-5 -5 -4 -3 -3 -4 -4 -4 -5 -5 -5 -4 -5 -5 -5 -5 -4 -4 -4 -4 -4 -4 -4 -4 -3 -4 -4 -4 -4 -4 -4 -4 -4 -4 -4 -3 -4 -4 -5 -5 -5 -5 -5 -5
-4 -5 -4 -3 -3 -4 -4 -4 -5 -5 -5 -5 -5 -5 -5 -5 -5 -5 -4 -4 -4 -4 -3 -4 -4 -4 -4 -4 -4 -4 -4 -4 -4 -4 -4 -4 -4 -5 -5 -5 -5 -5 -5 -5
-6 -5 -4 -3 -4 -3 -4 -5 -5 -5 -5 -5 -5 -5 -5 -5 -5 -5 -4 -4 -4 -4 -4 -4 -4 -3 -3 -4 -3 -4 -4 -4 -4 -4 -4 -4 -5 -5 -5 -5 -5 -5 -5 -6
-5 -5 -5 -3 -3 -4 -5 -5 -5 -6 -5 -4 -5 -5 -5 -5 -5 -5 -5 -5 -5 -4 -4 -4 -4 -4 -4 -4 -4 -4 -4 -4 -4 -5 -5 -5 -5 -6 -6 -6 -6 -6 -6 -6
-4 -5 -4 -3 -3 -4 -5 -6 -6 -6 -5 -5 -5 -4 -5 -5 -5 -5 -5 -5 -5 -5 -4 -4 -4 -4 -4 -4 -4 -4 -4 -4 -5 -5 -5 -6 -6 -6 -6 -7 -7 -7 -7 -7
-5 -4 -4 -3 -4 -4 -5 -5 -4 -5 -5 -5 -4 -4 -5 -4 -4 -4 -5 -5 -4 -5 -5 -5 -4 -4 -4 -4 -4 -4 -4 -5 -5 -6 -6 -6 -6 -7 -7 -7 -7 -7 -7 -7
-5 -5 -4 -3 -4 -5 -5 -4 -5 -4 -5 -4 -3 -4 -4 -4 -4 -4 -4 -4 -4 -4 -4 -4 -4 -4 -4 -4 -4 -4 -5 -5 -6 -6 -7 -7 -7 -7 -7 -7 -7 -8 -8 -8
-6 -4 -4 -4 -5 -5 -4 -4 -5 -5 -4 -3 -2 -2 -3 -3 -3 -3 -4 -4 -4 -4 -4 -4 -4 -4 -4 -4 -4 -5 -5 -5 -6 -6 -7 -7 -7 -7 -7 -8 -8 -8 -8 -8
-5 -4 -4 -6 -4 -5 -5 -5 -5 -4 -3 -2 -2 -1 -2 -2 -3 -3 -4 -3 -4 -4 -4 -4 -4 -4 -4 -4 -5 -5 -5 -6 -6 -7 -7 -7 -8 -8 -8 -8 -8 -8 -8 -9
-5 -5 -5 -4 -6 -5 -5 -5 -4 -3 -2 -2 -1 -1 -1 -2 -2 -2 -3 -3 -3 -3 -4 -5 -4 -3 -4 -4 -5 -5 -6 -7 -7 -8 -8 -8 -8 -9 -9 -9 -9 -9 -10 -10
-5 -4 -4 -5 -5 -4 -4 -4 -3 -2 -1 -1 -1 -1 -1 -2 -2 -3 -3 -3 -3 -3 -4 -5 -4 -3 -3 -4 -5 -6 -6 -7 -8 -8 -9 -9 -9 -9 -9 -9 -10 -10 -11 -11
-4 -5 -6 -5 -5 -4 -3 -3 -2 -1 -1 -0 -1 -1 -2 -2 -2 -3 -3 -3 -3 -4 -4 -4 -3 -4 -4 -5 -5 -6 -7 -8 -8 -9 -9 -10 -10 -10 -10 -11 -11 -11 -11 -12
-6 -5 -5 -3 -3 -3 -2 -1 -0 0 0 -1 -1 -1 -2 -2 -3 -3 -4 -4 -4 -4 -4 -4 -4 -5 -5 -6 -7 -7 -8 -9 -9 -10 -10 -10 -10 -11 -11 -12 -12 -12 -12 -12
-5 -4 -3 -2 -2 -1 -1 -1 -0 -0 -1 -1 -1 -2 -2 -3 -3 -3 -4 -4 -4 -4 -4 -4 -5 -5 -6 -7 -7 -8 -9 -9 -10 -10 -10 -11 -11 -11 -12 -12 -12 -12 -12 -13
-4 -3 -2 -2 -2 -1 -1 -0 -0 -0 -1 -2 -2 -3 -3 -3 -3 -4 -4 -4 -4 -4 -4 -5 -5 -6 -6 -7 -8 -9 -9 -10 -10 -11 -11 -11 -12 -12 -12 -12 -12 -12 -13 -13
-4 -2 -1 -1 -1 -1 -1 -1 -1 -2 -2 -2 -3 -3 -3 -4 -4 -4 -4 -4 -4 -5 -5 -5 -6 -6 -7 -8 -8 -9 -9 -10 -11 -11 -12 -12 -12 -12 -12 -12 -12 -13 -13 -13
Height
2960 2966 2971 2981 2989 2995 3001 3004 3008 3011 3014 3018 3019 3020 3022 3024 3026 3028 3031 3033 3034 3036 3037 3038 3039 3040 3041 3043 3045 3046 3047 3050 3054 3059 3060 3063 3065 3068 3069 3071 3075 3075 3076 3078
2960 2961 2969 2976 2984 2991 2995 3002 3005 3007 3011 3013 3016 3019 3022 3024 3025 3028 3031 3033 3034 3036 3037 3039 3040 3041 3042 3045 3046 3048 3049 3053 3058 3063 3065 3063 3064 3067 3070 3072 3074 3076 3078 3082
2959 2958 2961 2971 2979 2985 2993 2998 3001 3004 3007 3010 3014 3017 3021 3023 3026 3027 3030 3032 3034 3035 3037 3037 3039 3042 3044 3046 3049 3050 3052 3053 3056 3058 3059 3061 3062 3065 3068 3071 3074 3076 3077 3076
2951 2953 2959 2966 2974 2981 2988 2993 2996 2998 3000 3005 3010 3016 3020 3022 3024 3027 3030 3033 3036 3037 3037 3038 3040 3043 3045 3048 3050 3051 3053 3055 3057 3058 3059 3060 3061 3064 3066 3068 3071 3074 3076 3077
2944 2954 2957 2961 2968 2976 2985 2989 2993 2995 2998 3004 3010 3015 3018 3021 3023 3026 3029 3032 3034 3037 3037 3038 3039 3042 3045 3046 3049 3051 3053 3055 3057 3058 3059 3060 3061 3063 3065 3067 3069 3072 3073 3074
2940 2942 2947 2959 2966 2974 2982 2986 2991 2995 2998 3002 3009 3014 3018 3021 3024 3027 3029 3033 3035 3037 3039 3039 3041 3043 3044 3046 3048 3050 3053 3055 3057 3058 3059 3060 3062 3062 3063 3065 3066 3068 3070 3071
2937 2940 2946 2955 2964 2971 2980 2986 2990 2993 2997 3002 3007 3013 3017 3021 3024 3026 3029 3033 3035 3039 3039 3040 3042 3044 3045 3046 3048 3050 3053 3054 3058 3059 3061 3065 3062 3061 3061 3063 3063 3064 3065 3065
2930 2937 2945 2954 2963 2970 2978 2985 2988 2992 2996 3003 3008 3012 3016 3020 3025 3027 3029 3032 3036 3038 3040 3042 3044 3045 3046 3047 3048 3049 3052 3055 3057 3060 3061 3062 3060 3059 3059 3059 3059 3059 3060 3061
2933 2938 2945 2953 2959 2968 2978 2984 2987 2992 2997 3002 3007 3012 3017 3020 3023 3027 3030 3033 3035 3038 3040 3042 3043 3044 3046 3048 3049 3050 3052 3054 3056 3057 3057 3056 3053 3053 3055 3056 3056 3056 3057 3057
2936 2937 2942 2952 2958 2967 2976 2982 2986 2992 2996 3000 3005 3009 3013 3018 3022 3025 3029 3032 3035 3038 3039 3041 3043 3043 3045 3046 3047 3049 3051 3051 3053 3054 3053 3051 3052 3054 3055 3058 3059 3054 3053 3053
2934 2937 2944 2951 2958 2966 2974 2981 2985 2992 2995 2999 3005 3009 3013 3017 3021 3024 3027 3032 3034 3037 3039 3041 3041 3042 3043 3044 3045 3046 3048 3049 3050 3053 3053 3051 3050 3053 3054 3054 3053 3053 3052 3051
2935 2939 2944 2952 2959 2966 2973 2979 2984 2990 2997 2999 3004 3008 3012 3016 3021 3024 3026 3028 3031 3034 3036 3038 3039 3039 3041 3042 3043 3045 3047 3046 3046 3048 3047 3047 3047 3049 3049 3049 3049 3047 3046 3044
2936 2940 2946 2953 2959 2966 2973 2979 2985 2991 2995 3000 3003 3006 3011 3015 3019 3022 3026 3028 3030 3032 3035 3036 3038 3039 3039 3039 3041 3041 3042 3043 3043 3045 3044 3044 3044 3045 3044 3044 3042 3040 3038 3037
2936 2941 2947 2954 2960 2966 2974 2979 2984 2990 2996 2998 3001 3005 3009 3014 3018 3021 3024 3027 3029 3032 3034 3035 3037 3038 3038 3038 3039 3039 3040 3040 3040 3039 3039 3039 3040 3040 3039 3038 3037 3036 3034 3032
2936 2942 2950 2956 2962 2967 2974 2979 2984 2990 2998 2997 3000 3005 3009 3013 3017 3020 3023 3025 3028 3030 3032 3033 3035 3036 3037 3036 3037 3036 3037 3037 3037 3036 3036 3035 3034 3035 3035 3034 3032 3031 3030 3028
2935 2942 2951 2958 2963 2969 2974 2978 2983 2988 2994 2996 2999 3004 3007 3012 3016 3019 3021 3024 3026 3028 3029 3031 3032 3033 3035 3033 3032 3032 3032 3032 3032 3032 3031 3031 3031 3031 3030 3030 3029 3027 3025 3023
2938 2946 2953 2959 2964 2970 2974 2981 2984 2988 2993 2997 3000 3003 3006 3010 3013 3016 3019 3021 3024 3026 3027 3028 3028 3030 3031 3029 3029 3028 3028 3028 3029 3028 3028 3028 3027 3027 3026 3025 3023 3021 3019 3017
2942 2947 2954 2960 2965 2971 2976 2979 2984 2989 2994 2998 2999 3000 3005 3008 3011 3015 3017 3020 3022 3024 3025 3026 3026 3027 3027 3025 3024 3024 3024 3024 3024 3024 3024 3023 3023 3022 3021 3018 3017 3015 3012 3009
2944 2950 2957 2963 2967 2973 2976 2981 2986 2991 2997 2997 2997 2999 3004 3007 3010 3014 3017 3019 3021 3023 3023 3024 3025 3023 3022 3020 3020 3021 3021 3021 3021 3020 3019 3019 3019 3017 3015 3014 3011 3008 3005 3001
2946 2954 2960 2966 2970 2974 2978 2986 2990 2993 2994 2995 2995 2998 3001 3007 3010 3014 3017 3018 3020 3020 3021 3021 3019 3017 3017 3016 3017 3018 3018 3017 3016 3015 3015 3015 3013 3012 3010 3007 3003 2999 2995 2991
2946 2953 2959 2967 2971 2978 2982 2987 2990 2992 2993 2994 2996 2999 3002 3007 3011 3013 3016 3017 3017 3017 3016 3017 3014 3012 3013 3014 3014 3014 3014 3013 3012 3012 3011 3010 3008 3005 3003 3000 2995 2990 2985 2981
2951 2956 2964 2969 2976 2981 2983 2984 2987 2987 2990 2991 2996 2999 3003 3007 3010 3012 3014 3014 3015 3013 3014 3014 3011 3011 3011 3011 3011 3010 3010 3009 3008 3007 3005 3003 3001 2997 2993 2988 2984 2980 2976 2971
2953 2961 2965 2970 2973 2975 2976 2976 2979 2982 2984 2989 2994 2998 3003 3007 3010 3011 3012 3012 3012 3013 3012 3011 3010 3010 3009 3009 3008 3007 3006 3006 3005 3003 3000 2996 2992 2989 2985 2981 2977 2973 2969 2965
2956 2960 2962 2966 2967 2969 2970 2973 2978 2981 2984 2989 2995 2999 3003 3005 3008 3009 3009 3010 3011 3010 3009 3009 3009 3008 3006 3005 3004 3003 3002 3001 2999 2996 2993 2988 2985 2982 2979 2975 2970 2966 2962 2958
2956 2959 2961 2962 2964 2966 2968 2973 2978 2981 2985 2990 2995 3000 3003 3004 3006 3006 3007 3007 3007 3007 3007 3007 3006 3005 3003 3002 3000 2998 2996 2994 2991 2988 2985 2981 2979 2976 2973 2968 2963 2958 2954 2949
2955 2958 2960 2962 2963 2966 2970 2974 2978 2982 2986 2991 2996 2998 3001 3002 3003 3003 3003 3004 3005 3005 3004 3003 3002 3000 2998 2997 2995 2993 2990 2987 2984 2981 2978 2976 2973 2969 2966 2962 2957 2952 2946 2940
2953 2956 2959 2961 2964 2968 2971 2976 2980 2984 2989 2991 2994 2996 2997 3000 3001 3001 3001 3002 3003 3002 3000 2999 2996 2995 2993 2991 2989 2987 2984 2980 2978 2975 2971 2968 2965 2961 2957 2954 2951 2945 2940 2933
Wind_Speed
20 17 26 30 28 28 23 14 13 13 14 18 13 12 12 13 16 12 10 12 15 10 10 8 7 8 8 13 11 10 8 10 10 9 7 10 10 9 6 2 3 3 2 2
17 16 34 30 28 22 21 20 16 15 19 17 16 19 14 12 13 14 16 10 10 12 10 8 8 11 15 15 12 7 10 9 9 3 8 14 14 15 13 7 5 3 2 6
27 25 36 37 28 26 27 19 17 20 22 17 22 22 19 16 13 12 17 16 13 9 4 9 12 16 11 12 10 8 7 13 6 10 4 10 20 20 18 17 7 7 4 13
23 45 25 33 21 25 26 21 16 14 24 24 24 24 20 18 19 15 16 15 14 13 6 12 13 10 14 13 14 11 7 8 8 6 2 6 10 15 18 19 20 11 11 17
18 17 23 32 30 25 31 26 13 17 12 22 27 21 18 19 18 23 17 17 16 12 10 2 12 12 16 9 14 11 9 11 10 7 5 6 6 10 18 19 20 21 16 16
23 25 29 31 29 16 13 20 18 15 22 30 29 22 22 20 19 18 15 13 11 10 8 8 8 12 12 10 13 11 7 9 8 5 3 3 4 8 11 13 21 25 24 23
22 23 29 29 32 20 17 17 17 17 27 29 24 26 22 19 20 17 15 15 12 12 11 10 11 11 7 6 9 10 7 7 5 2 1 2 2 3 9 14 14 15 16 19
3 16 29 26 20 19 22 22 19 17 23 24 24 26 24 21 18 16 15 12 12 15 14 15 11 10 9 7 5 8 11 8 4 3 5 3 6 7 7 8 13 17 19 20
21 19 23 30 21 22 26 25 21 19 19 30 25 24 20 20 22 20 17 13 15 18 19 10 6 5 5 6 8 9 10 10 7 9 4 7 6 9 9 9 15 16 19 20
22 25 26 28 21 29 28 25 23 20 19 30 27 25 24 21 21 21 20 18 19 19 15 9 7 5 8 7 9 11 11 10 10 9 6 6 11 9 8 8 7 10 13 15
27 24 29 26 29 29 30 25 26 23 20 27 28 23 21 21 22 20 20 20 21 20 14 10 6 7 10 8 8 10 12 11 11 12 7 8 12 13 12 9 10 11 13 16
26 22 23 27 27 28 29 26 27 25 22 20 27 22 20 20 20 20 17 15 19 15 16 10 7 8 10 10 8 12 10 9 8 10 8 7 7 9 10 12 14 15 18 20
21 21 25 30 28 27 27 26 26 26 22 11 24 24 21 19 16 18 15 17 15 14 17 9 8 7 11 11 13 12 13 12 11 11 13 14 14 14 11 15 15 14 15 13
19 17 30 28 27 26 24 24 25 26 21 11 25 24 23 21 18 17 15 17 13 15 14 11 9 8 8 12 10 13 13 11 13 17 16 15 16 16 14 13 12 12 13 13
20 20 31 24 25 24 24 23 23 24 20 8 26 24 21 22 19 19 17 16 14 12 15 14 14 13 11 11 13 14 15 16 14 14 13 15 16 14 14 15 17 17 16 16
21 23 30 26 26 25 25 26 27 24 22 6 25 23 23 21 19 19 19 17 16 14 13 14 14 12 10 7 10 12 14 14 15 15 16 15 15 15 17 17 17 18 18 17
20 27 31 26 26 26 26 21 26 23 17 11 15 18 21 20 19 19 18 17 17 16 15 15 14 13 15 17 15 10 9 10 12 13 14 15 17 18 18 19 19 19 21 22
24 30 26 26 28 26 21 18 24 22 17 14 7 12 20 19 19 19 18 16 15 15 14 13 14 14 13 10 13 12 13 13 13 15 16 17 16 17 19 20 21 22 24 27
28 29 25 27 30 24 22 26 23 24 13 7 7 19 20 21 19 17 16 14 14 12 15 15 10 15 11 14 12 10 11 12 13 15 15 16 17 19 21 23 26 29 32 36
34 30 33 34 27 26 28 24 23 14 10 6 12 23 18 24 22 18 13 11 11 6 13 13 16 20 19 18 16 14 14 15 15 17 17 18 21 24 25 28 32 36 38 40
38 40 38 30 29 28 20 15 12 10 7 9 19 18 19 21 19 16 12 4 6 5 7 8 6 9 8 9 11 12 13 15 16 18 19 21 23 25 29 31 34 35 33 32
38 36 34 34 25 14 7 15 11 10 9 17 23 18 20 20 17 11 9 6 4 4 4 6 3 2 5 6 6 8 10 12 14 17 19 22 26 30 33 33 31 30 30 30
38 37 31 25 11 12 10 14 12 10 15 25 23 22 19 17 11 6 5 4 4 3 4 3 2 6 8 9 9 9 10 12 15 19 23 28 29 28 28 27 27 28 29 29
38 22 17 12 8 10 11 22 22 13 18 25 23 20 15 11 10 5 4 5 3 3 3 3 6 11 12 12 13 13 15 17 21 25 26 25 24 22 20 21 24 28 29 30
25 10 10 11 11 18 20 24 20 13 22 25 22 18 9 10 6 6 5 5 4 4 3 8 14 15 15 15 15 17 19 22 24 23 23 22 20 19 20 23 26 29 31 32
22 10 12 15 19 21 23 22 18 19 25 23 18 12 5 7 5 6 5 4 4 4 11 15 16 17 16 17 19 21 23 24 23 22 21 19 21 22 21 20 24 26 28 30
14 15 19 19 24 23 21 21 21 21 20 19 10 8 7 6 5 5 4 3 8 11 13 15 16 17 17 20 22 24 24 24 24 22 22 22 24 23 23 25 26 29 31 35
Wind_Direction
227 251 223 204 221 222 227 224 202 212 194 183 170 168 166 178 162 173 161 149 139 129 126 112 108 142 143 138 121 99 100 145 132 153 166 176 182 174 170 108 123 72 80 345
240 195 227 216 217 224 232 229 202 200 194 187 167 155 156 154 170 169 157 153 148 151 141 112 102 128 145 158 154 133 127 147 118 201 219 213 208 201 195 168 145 235 133 155
229 214 215 217 219 223 226 198 198 200 198 189 166 165 164 157 153 167 166 159 149 155 138 131 142 141 145 167 179 158 153 160 181 181 183 205 215 212 215 222 212 193 203 163
261 233 225 212 214 212 229 201 206 215 204 187 170 167 171 166 166 171 175 172 163 146 133 137 148 155 149 157 164 162 163 147 153 152 160 196 217 215 212 219 217 218 221 182
269 238 247 213 206 221 232 206 197 204 193 173 167 167 177 167 160 164 163 171 175 167 174 159 170 161 163 154 165 166 173 167 164 148 164 198 203 210 220 228 236 239 235 219
231 218 204 205 208 207 188 196 195 180 180 166 170 175 173 173 169 167 169 177 169 156 162 141 148 153 165 170 178 183 180 170 174 180 211 251 279 241 234 241 239 244 250 261
234 235 193 209 209 197 223 201 188 190 180 178 178 173 175 173 178 182 171 171 178 164 161 143 129 133 138 156 187 198 197 177 152 94 152 14 263 243 228 232 233 239 245 247
302 227 199 206 198 195 202 199 185 189 182 170 173 177 179 179 182 180 171 162 171 170 156 144 126 133 137 150 184 190 205 189 154 178 203 265 230 219 218 218 230 236 243 251
158 191 210 194 181 174 183 189 181 184 177 176 173 178 186 183 182 177 178 168 164 165 161 162 160 173 168 176 169 162 170 177 185 184 195 211 218 216 222 233 255 249 254 259
206 190 187 195 173 175 182 186 180 182 185 182 175 179 183 187 187 180 177 175 172 173 181 167 163 161 177 179 179 191 186 197 205 193 221 239 226 220 219 224 270 277 265 262
216 195 181 181 176 175 182 183 180 183 184 185 187 195 189 188 190 190 184 180 191 192 193 193 171 174 188 190 183 185 196 198 204 216 227 252 216 215 220 251 269 281 277 279
217 207 183 175 169 175 182 183 182 184 191 192 194 194 196 198 201 198 198 192 196 195 195 198 198 185 193 202 195 197 204 207 207 202 221 239 206 222 238 269 285 286 288 291
196 186 176 174 172 179 183 182 184 186 190 181 191 188 190 196 197 192 202 202 197 203 202 209 201 201 205 197 219 215 217 218 225 230 244 245 251 259 261 275 283 287 291 295
180 173 172 164 174 177 178 178 183 188 190 191 185 187 191 194 194 192 196 201 204 209 207 217 218 225 227 224 234 223 229 233 239 245 257 263 265 272 277 284 286 293 296 298
176 172 163 166 172 168 173 173 177 179 185 219 186 186 193 197 197 199 202 204 211 214 219 221 230 239 247 250 247 243 243 249 253 263 268 266 271 268 278 280 285 284 288 293
168 176 163 170 167 169 169 165 172 174 180 189 177 191 189 193 197 203 209 215 216 216 218 224 232 236 237 249 247 254 247 246 251 260 263 262 261 269 273 277 280 282 286 288
164 168 162 169 166 170 166 168 172 169 177 175 181 181 190 189 196 203 209 211 214 219 225 234 238 240 239 248 253 255 245 247 253 255 251 258 269 275 276 277 278 279 281 285
161 155 158 175 164 160 159 159 162 159 154 167 180 178 176 183 191 196 200 206 213 216 223 232 234 237 241 252 256 255 253 256 261 266 268 271 270 271 275 277 280 283 287 292
153 159 164 165 153 155 147 146 153 149 164 192 199 177 173 174 176 182 187 197 208 224 226 233 237 236 231 243 253 250 252 261 272 272 272 275 279 283 286 288 290 293 296 299
167 164 158 153 149 142 143 150 154 164 185 211 188 178 176 175 178 182 185 204 211 239 229 235 241 248 249 253 264 266 268 273 277 276 278 284 291 294 292 292 294 297 298 299
161 160 160 151 139 144 144 156 164 181 194 188 171 173 174 173 180 186 192 214 219 232 227 214 241 259 268 265 267 271 275 277 280 282 286 289 291 290 293 296 298 300 303 306
161 156 148 140 134 152 173 177 181 180 189 175 173 172 169 174 179 181 206 222 224 248 219 219 249 5 349 321 300 291 288 285 284 287 290 294 298 299 301 303 306 309 310 309
155 146 144 158 170 186 189 176 171 178 172 177 175 171 170 176 188 203 203 213 232 226 225 241 219 330 325 318 309 298 291 289 290 293 298 300 300 301 303 308 310 311 312 312
154 152 153 173 185 189 174 175 184 178 170 172 173 174 169 180 192 205 207 207 206 229 230 220 308 321 321 317 309 303 299 297 298 299 301 298 299 302 307 311 311 311 312 310
162 161 179 189 180 172 171 174 181 174 167 168 169 177 184 190 196 200 199 191 212 221 231 302 315 316 314 310 305 302 301 301 301 301 301 299 300 305 310 310 312 312 311 309
165 169 177 181 176 164 153 155 160 161 162 163 171 181 188 197 209 191 186 185 214 252 297 305 310 311 311 308 305 305 305 304 302 302 297 296 299 305 308 316 319 322 323 321
174 169 168 169 153 153 144 141 148 155 161 171 165 179 181 175 189 170 176 227 281 296 305 309 313 311 311 308 307 307 306 303 303 298 293 295 300 298 301 307 311 318 321 323